Vorticity
20 3 14 6 -5 3 13 9 -18 33 22 19 7 20 4 -0 5 7 9 10 11 11 9 8 9 8 8 9 8 8 10 10 9 10 9 9 8 6
18 10 11 20 11 14 -1 18 32 -5 10 23 17 11 6 9 7 7 5 5 11 13 12 11 11 11 9 9 10 10 12 12 10 8 8 6 6 7
13 7 20 14 14 15 25 11 -16 -0 -14 22 6 -0 12 13 16 12 11 11 10 9 9 11 11 9 9 9 11 11 10 9 9 8 9 9 10 9
7 3 3 11 7 1 10 -3 9 4 -10 -8 15 15 -2 4 11 9 7 8 11 14 14 13 10 9 11 10 10 10 9 10 9 8 9 9 10 9
10 14 9 25 -8 14 4 2 14 -2 43 26 22 -2 6 12 11 12 9 10 12 12 11 9 11 9 9 8 8 8 7 9 7 3 4 3 3 5
12 -2 7 11 7 14 5 26 8 14 -9 21 8 8 7 12 10 12 13 10 10 10 11 10 10 11 9 9 9 4 1 2 3 4 5 8 11 13
7 30 -2 24 29 53 3 11 10 21 6 10 7 6 7 14 12 13 13 10 13 11 10 12 9 9 9 8 9 10 9 7 4 7 10 12 11 10
-2 23 15 26 13 -4 9 7 3 10 4 -0 10 21 21 11 11 11 13 12 9 12 10 10 8 5 1 0 3 6 9 4 7 11 11 11 11 11
11 14 19 10 10 46 2 4 7 10 14 17 18 15 12 12 14 12 10 10 11 8 3 2 0 -2 -8 3 15 10 6 8 11 10 9 9 10 10
11 -3 10 15 19 13 2 5 12 16 12 10 13 11 11 10 8 9 9 6 3 -0 -3 -7 -3 18 16 7 7 7 9 10 8 6 7 9 9 9
13 14 6 6 -2 1 9 13 11 11 12 5 6 7 6 8 4 -6 -7 -3 3 3 19 28 19 10 7 6 8 8 8 8 7 8 9 9 9 9
17 16 16 13 15 14 23 19 10 5 8 9 5 18 13 14 11 11 12 13 23 14 9 8 6 6 6 4 8 11 8 10 8 8 9 9 9 9
15 20 23 20 19 13 13 12 9 11 9 10 7 3 2 5 11 11 8 7 9 7 5 3 2 6 10 14 8 9 10 10 9 10 10 9 10 11
12 11 11 12 10 9 12 11 8 6 4 2 1 2 2 11 16 10 7 6 4 2 3 8 13 12 12 12 11 8 11 13 11 11 9 9 11 11
7 9 8 7 7 5 5 4 -3 1 7 5 9 23 18 8 3 5 1 3 13 15 14 14 13 13 12 11 10 9 12 12 12 10 9 10 11 12
11 11 9 11 12 6 9 0 -3 12 31 26 9 4 3 6 3 -2 5 13 15 12 15 12 11 10 10 8 8 11 13 12 11 11 10 13 15 15
10 9 3 4 2 -1 6 26 24 6 4 4 4 3 4 4 2 -2 3 15 10 16 13 10 8 6 5 8 12 12 11 11 12 13 14 14 16 14
3 4 6 13 6 21 25 8 6 4 4 3 1 6 8 6 -1 -5 15 7 14 14 11 7 6 6 8 11 10 10 10 9 11 14 14 12 12 12
11 4 10 16 12 6 5 5 5 4 2 -1 9 10 6 4 -2 8 8 15 13 11 6 8 11 11 12 11 10 11 16 16 16 13 9 10 11 13
12 13 7 6 5 4 4 4 3 4 1 8 8 7 3 -1 5 12 16 12 12 7 1 1 5 9 11 12 14 18 15 13 10 9 11 10 11 13
4 4 4 3 4 4 5 5 5 6 7 7 2 5 4 11 12 10 17 10 8 7 8 9 6 10 14 16 17 12 9 13 15 15 14 15 18 19
6 6 6 7 7 7 7 6 4 2 1 7 9 11 15 11 15 19 9 8 7 10 12 11 10 19 20 11 9 12 13 17 16 16 19 18 15 14
8 8 6 5 3 4 10 17 19 10 9 9 10 13 16 12 8 6 9 9 8 13 11 15 20 16 10 13 13 15 18 17 18 17 21 12 13 12
Height
3029 3034 3037 3039 3042 3046 3048 3053 3054 3056 3060 3061 3066 3067 3067 3069 3071 3071 3071 3072 3072 3074 3075 3076 3077 3076 3077 3077 3078 3076 3076 3077 3075 3075 3073 3073 3071 3070
3021 3026 3030 3033 3036 3039 3041 3045 3047 3050 3053 3055 3058 3060 3062 3063 3063 3064 3064 3065 3066 3067 3067 3068 3068 3068 3069 3069 3070 3070 3070 3068 3068 3066 3065 3064 3062 3059
3014 3020 3023 3026 3029 3033 3035 3039 3042 3045 3046 3051 3052 3054 3056 3057 3058 3057 3058 3058 3059 3060 3060 3060 3061 3062 3063 3062 3062 3062 3061 3060 3059 3057 3056 3055 3052 3050
3009 3013 3016 3020 3022 3027 3030 3033 3037 3038 3044 3044 3046 3049 3050 3049 3051 3052 3053 3053 3053 3054 3054 3053 3054 3055 3055 3054 3054 3054 3053 3052 3051 3049 3047 3045 3042 3040
3003 3007 3010 3013 3017 3021 3024 3027 3031 3033 3034 3037 3040 3041 3043 3044 3045 3045 3046 3047 3047 3047 3047 3048 3047 3047 3047 3047 3047 3046 3046 3044 3042 3040 3038 3036 3033 3030
2998 3001 3004 3006 3012 3014 3018 3022 3024 3025 3028 3030 3033 3036 3038 3039 3039 3040 3041 3041 3041 3041 3041 3041 3042 3041 3042 3041 3040 3039 3038 3036 3033 3031 3028 3025 3022 3020
2991 2996 2995 3002 3003 3006 3014 3018 3018 3021 3024 3027 3029 3031 3032 3033 3033 3034 3035 3036 3036 3037 3036 3036 3036 3036 3036 3034 3033 3031 3029 3027 3025 3022 3019 3016 3013 3010
2988 2992 2996 2999 3003 3005 3009 3013 3016 3018 3020 3022 3024 3025 3026 3028 3029 3029 3030 3031 3032 3031 3031 3031 3030 3030 3028 3027 3025 3023 3020 3018 3016 3012 3009 3006 3003 2999
2989 2993 2994 2997 3000 3002 3006 3009 3012 3014 3016 3018 3020 3021 3023 3023 3024 3025 3026 3026 3026 3027 3027 3025 3024 3023 3021 3019 3017 3015 3012 3009 3005 3002 2999 2995 2992 2988
2989 2991 2993 2995 2999 3002 3004 3006 3008 3010 3012 3014 3016 3017 3018 3020 3020 3021 3022 3022 3022 3021 3021 3020 3017 3014 3012 3010 3009 3006 3003 2999 2995 2992 2988 2984 2980 2977
2988 2991 2993 2995 2997 3000 3002 3003 3005 3008 3011 3012 3013 3015 3016 3018 3019 3019 3018 3018 3016 3015 3013 3011 3009 3007 3004 3002 3000 2997 2993 2989 2986 2981 2977 2973 2969 2966
2988 2990 2991 2992 2994 2996 2998 3000 3004 3007 3009 3011 3012 3013 3014 3014 3014 3013 3012 3011 3009 3007 3006 3004 3001 2998 2997 2994 2991 2987 2984 2979 2974 2970 2966 2961 2957 2953
2986 2988 2989 2991 2993 2996 2998 3001 3004 3006 3008 3009 3009 3010 3010 3010 3009 3007 3006 3004 3001 2999 2998 2995 2992 2989 2986 2983 2983 2978 2974 2969 2964 2960 2954 2950 2946 2940
2987 2988 2990 2992 2995 2997 3000 3002 3003 3005 3006 3006 3006 3006 3005 3004 3003 3001 2999 2997 2995 2992 2988 2984 2981 2977 2973 2971 2970 2969 2964 2959 2953 2949 2943 2938 2934 2929
2988 2991 2993 2995 2997 2999 3001 3002 3003 3004 3003 3003 3002 3001 3000 2999 2997 2995 2993 2990 2986 2981 2977 2973 2970 2967 2963 2959 2955 2955 2948 2949 2942 2936 2931 2927 2923 2918
2991 2993 2995 2997 2998 2999 3000 3000 3000 3000 2999 2998 2997 2996 2995 2993 2991 2989 2986 2982 2978 2974 2968 2963 2960 2956 2953 2949 2945 2942 2937 2930 2929 2924 2919 2916 2911 2906
2992 2994 2995 2996 2997 2998 2998 2997 2996 2995 2994 2994 2993 2992 2990 2987 2984 2981 2977 2973 2969 2965 2962 2956 2951 2946 2942 2938 2934 2930 2924 2919 2913 2909 2906 2902 2900 2895
2993 2994 2995 2995 2995 2995 2994 2993 2993 2992 2991 2990 2988 2985 2983 2980 2977 2972 2968 2964 2961 2957 2954 2949 2943 2937 2933 2932 2925 2919 2915 2907 2902 2897 2891 2885 2886 2884
2992 2992 2993 2992 2992 2991 2990 2989 2988 2987 2986 2983 2981 2978 2975 2972 2968 2965 2959 2954 2951 2948 2945 2939 2933 2926 2920 2916 2915 2910 2900 2895 2890 2887 2882 2876 2871 2870
2991 2990 2990 2990 2989 2987 2986 2985 2983 2982 2980 2977 2973 2970 2967 2963 2959 2955 2950 2944 2940 2937 2934 2930 2924 2916 2909 2903 2898 2899 2891 2885 2880 2874 2869 2865 2860 2856
2989 2988 2987 2986 2985 2983 2981 2979 2977 2974 2971 2968 2965 2961 2957 2952 2948 2944 2939 2935 2930 2926 2922 2919 2913 2906 2899 2893 2887 2885 2883 2877 2869 2862 2857 2851 2845 2841
2986 2985 2983 2982 2980 2977 2975 2972 2969 2966 2962 2958 2954 2951 2946 2942 2938 2934 2930 2926 2922 2917 2911 2907 2903 2897 2892 2885 2880 2875 2871 2868 2862 2855 2850 2843 2834 2827
2982 2980 2977 2974 2972 2969 2966 2962 2959 2955 2951 2947 2944 2940 2936 2932 2928 2924 2920 2915 2911 2906 2901 2897 2893 2888 2883 2876 2870 2866 2861 2856 2850 2846 2846 2838 2831 2825